{"data":{"norad_id":40037,"intl_designator":"2014-033AD","name":"PERSEUS-M2","alt_names":[],"object_type":"PAYLOAD","status":"ACTIVE","operator":null,"country":"CIS","launch_date":"2014-06-19","launch_site_code":"DLS","launch_vehicle":null,"mission":null,"orbit_class":"UNKNOWN","rcs_meters":0.1525,"size_class":null,"mass_kg":null,"dimensions":null,"purposes":["tech_demo"],"wikipedia_slug":null,"has_3d_model":false,"image_url":null,"decayed_at":null,"tle_current":{"epoch":"2026-05-25T04:19:15.960576Z","epoch_age_seconds":55611,"freshness":"FRESH","line1":"1 40037U 14033AD  26145.18004584  .00000782  00000+0  76235-4 0  9996","line2":"2 40037  97.9952  95.2560 0012599  21.6610 338.5140 14.95423588647343","mean_motion":14.95423588,"eccentricity":0.0012599,"inclination_deg":97.9952,"raan_deg":95.256,"arg_perigee_deg":21.661,"mean_anomaly_deg":338.514,"bstar":7.6235e-5,"rev_number":64734,"period_min":96.293786693968,"perigee_km":572.29039386038,"apogee_km":589.826174137,"semimajor_km":6959.1952839987,"source":"CELESTRAK","updated_at":"2026-05-25T13:38:25.522161Z"}}}